Torna al catalogo

STARLINK-11717

AttivoComunicazioniVLEO
NORAD 64126·PAYLOAD·🇺🇸 United States

Lanciato May 24, 2025 da Cape Canaveral Space Force Station

Loading…

Prossimi Passaggi (prossime 24 ore)

TLE

AggiornatoSource: CelesTrak SupGP

Epoca: Sep 14, 2026, 21:41 UTC

1 64126C 25111D   26257.90395833  .00027313  00000+0  21220-3 0  2573
2 64126  43.0004 273.4943 0001559 256.1320 179.3122 15.70818800    17

Traccia STARLINK-11717 in tempo reale con AllMySat

Download on the App Store